Location: Ajisawe
(8.4333°N, 4.3833°E)
Time: 03:02:03
(UTC+00:00)

X-37B - Pass Details

Date: 08 March 2021
Orbit: 380 x 394 km, 45.0° (Epoch: 07 April)

Event Time Altitude Azimuth Distance (km) Brightness Sun altitude
Rises 18:50:47 0° 259° (W) 2,253 6.3 -14.9°
Reaches altitude 10° 18:53:52 10° 292° (WNW) 1,403 4.5 -15.7°
Maximum altitude 18:55:11 12° 317° (NW) 1,291 3.8 -16.0°
Drops below altitude 10° 18:56:29 10° 341° (NNW) 1,405 3.6 -16.3°
Enters shadow 18:58:50 - 9° (N) 2,009 4.1 -16.9°
